This is the latest recevied weather packets stored in our database for station/object OK2ZAW-21. If no packets are shown the sender has not sent any weather packets the latest 10 day(s).
| Time | Temp. | Humidity | Pressure | Rain* | Wind** | Luminosity | Snow |
|---|---|---|---|---|---|---|---|
| 1788538036 | 27.22° C | 48% | 1016.2 hPa | - | - | 421 W/m² | - |
| 1788537724 | 27.22° C | 47% | 1016.1 hPa | - | - | 422 W/m² | - |
| 1788537411 | 27.22° C | 48% | 1016.1 hPa | - | - | 421 W/m² | - |
| 1788537099 | 27.78° C | 47% | 1016.2 hPa | - | - | 421 W/m² | - |
| 1788536787 | 27.78° C | 48% | 1016.4 hPa | - | - | 421 W/m² | - |
| 1788536475 | 27.22° C | 47% | 1016.4 hPa | - | - | 422 W/m² | - |
| 1788536163 | 27.78° C | 47% | 1016.5 hPa | - | - | 422 W/m² | - |
| 1788535851 | 28.33° C | 47% | 1016.7 hPa | - | - | 422 W/m² | - |
| 1788535538 | 27.22° C | 49% | 1016.7 hPa | - | - | 422 W/m² | - |
| 1788535226 | 27.22° C | 49% | 1016.7 hPa | - | - | 422 W/m² | - |
| 1788534914 | 27.78° C | 48% | 1016.7 hPa | - | - | 422 W/m² | - |
| 1788534602 | 27.22° C | 48% | 1016.9 hPa | - | - | 422 W/m² | - |
| 1788534290 | 27.22° C | 49% | 1017 hPa | - | - | 422 W/m² | - |
| 1788533978 | 27.22° C | 49% | 1017.1 hPa | - | - | 422 W/m² | - |
| 1788533353 | 27.78° C | 48% | 1017.5 hPa | - | - | 422 W/m² | - |
| 1788533041 | 27.22° C | 49% | 1017.5 hPa | - | - | 423 W/m² | - |
| 1788532729 | 27.22° C | 48% | 1017.4 hPa | - | - | 422 W/m² | - |
| 1788532105 | 28.33° C | 46% | 1017.8 hPa | - | - | 422 W/m² | - |
| 1788531480 | 26.11° C | 51% | 1017.9 hPa | - | - | 423 W/m² | - |
| 1788531168 | 27.78° C | 49% | 1018 hPa | - | - | 422 W/m² | - |
| 1788530856 | 27.78° C | 48% | 1018 hPa | - | - | 423 W/m² | - |
| 1788530544 | 26.67° C | 50% | 1017.9 hPa | - | - | 423 W/m² | - |
| 1788530232 | 26.11° C | 51% | 1017.6 hPa | - | - | 423 W/m² | - |
| 1788529919 | 26.11° C | 51% | 1018 hPa | - | - | 423 W/m² | - |
| 1788529607 | 27.22° C | 50% | 1018.1 hPa | - | - | 423 W/m² | - |
* Rain since midnight (hover to see other rain measurements)
** Current wind speed in m/s (hover to see current wind gust speed)